Location: Newark
(58.8333°N, 23.5833°E)
Time: 08:45:37
(UTC+00:00)

Tiros 1 despin weight - Pass Details

Date: 22 November 2019
Orbit: 594 x 642 km, 48.2° (Epoch: 07 December)

Event Time Altitude Azimuth Distance (km) Brightness Sun altitude
Rises 13:26:08 0° 247° (WSW) 2,831 ? 1.5°
Reaches altitude 10° 13:28:51 10° 231° (SW) 1,933 ? 1.3°
Maximum altitude 13:32:09 21° 183° (S) 1,369 ? 1.0°
Drops below altitude 10° 13:35:28 10° 135° (SE) 1,946 ? 0.7°
Sets 13:38:13 0° 119° (ESE) 2,858 ? 0.4°
